Location: Newark
(21.1200°N, 73.4000°E)
Time: 18:42:17
(UTC+00:00)

Courier 1B Rocket - Pass Details

Date: 24 January 2020
Orbit: 920 x 1202 km, 28.2° (Epoch: 25 February)

Event Time Altitude Azimuth Distance (km) Brightness Sun altitude
Rises 06:24:52 0° 253° (WSW) 3,985 8.2 47.5°
Reaches altitude 10° 06:27:45 10° 255° (WSW) 2,988 7.6 47.7°
Maximum altitude 06:35:06 79° 341° (NNW) 1,084 5.9 48.2°
Drops below altitude 10° 06:41:55 10° 68° (ENE) 2,778 7.4 48.6°
Sets 06:44:31 0° 70° (ENE) 3,690 8.0 48.7°
